[keps] orb12306.2l.amsat

Ray Hoad ray.hoad at mypbmail.com
Thu Nov 1 19:04:50 PDT 2012


SB KEPS @ AMSAT  $ORB12306.N
2Line Orbital Elements 12306.AMSAT

HR AMSAT ORBITAL ELEMENTS FOR AMATEUR SATELLITES IN NASA FORMAT
FROM WA5QGD FORT WORTH,TX November 1, 2012
BID: ORB12306.N

DECODE 2-LINE ELSETS WITH THE FOLLOWING KEY:
1 AAAAAU 00  0  0 BBBBB.BBBBBBBB  .CCCCCCCC  00000-0  00000-0 0  DDDZ
2 AAAAA EEE.EEEE FFF.FFFF GGGGGGG HHH.HHHH III.IIII JJ.JJJJJJJJKKKKKZ
KEY: A-CATALOGNUM B-EPOCHTIME C-DECAY D-ELSETNUM E-INCLINATION F-RAAN
G-ECCENTRICITY H-ARGPERIGEE I-MNANOM J-MNMOTION K-ORBITNUM Z-CHECKSUM

TO ALL RADIO AMATEURS BT

AO-07
1 07530U 74089B   12305.61266837 -.00000027  00000-0  10000-3 0  5195
2 07530 101.4138 297.6064 0012190 015.9017 344.2435 12.53592419737143
FO-29
1 24278U 96046B   12306.28869221  .00000026  00000-0  61547-4 0  9713
2 24278 098.5863 029.0113 0351200 034.5096 327.8307 13.52991556800495
SO-33
1 25509U 98061B   12305.93347612  .00000989  00000-0  18366-3 0  3561
2 25509 031.4358 279.7765 0352181 319.8982 037.6143 14.28876317732227
RS-22
1 27939U 03042A   12306.56977698  .00000460  00000-0  95671-4 0  8652
2 27939 097.8005 140.2925 0012988 185.3186 174.7874 14.64198639485987
VO-52
1 28650U 05017B   12305.67449663  .00001021  00000-0  13021-3 0  2492
2 28650 097.5856 329.8968 0025506 315.0591 044.8500 14.83320317405204
HO-68
1 36122U 09072B   12306.78870820 -.00000044  00000-0  00000 0 0  9699
2 36122 100.3448 003.2538 0007509 151.8074 208.3443 13.16299473138498
UO-11
1 14781U 84021B   12306.18159444  .00000632  00000-0  89130-4 0   148
2 14781 097.9362 004.3872 0007598 313.1734 046.8843 14.80631149540193
AO-16
1 20439U 90005D   12305.89042671  .00000202  00000-0  90911-4 0  5949
2 20439 098.4428 245.5220 0011773 111.9760 248.2671 14.32104480189565
LO-19
1 20442U 90005G   12306.38181462  .00000165  00000-0  76761-4 0  5248
2 20442 098.4120 248.5386 0012708 102.7072 257.5527 14.32319344189826
AO-27
1 22825U 93061C   12305.87690730  .00000050  00000-0  36729-4 0  2325
2 22825 098.5881 246.6523 0007641 236.6967 123.3479 14.29503227996003
IO-26
1 22826U 93061D   12306.90118037  .00000169  00000-0  82901-4 0  9866
2 22826 098.5828 247.9970 0008168 226.8036 133.2462 14.29781950996281
GO-32
1 25397U 98043D   12305.56850286 -.00000081  00000-0 -17481-4 0  9111
2 25397 098.3813 277.6867 0000527 207.2148 152.8988 14.23302497743427
NO-44
1 26931U 01043C   12306.00220421  .00000179  00000-0  10158-3 0  1731
2 26931 067.0495 127.7101 0005443 249.4943 110.5564 14.29851241578801
SO-50
1 27607U 02058C   12306.15649847  .00000580  00000-0  10872-3 0  9032
2 27607 064.5582 238.1832 0073401 220.7459 138.8115 14.72609172530133
CO-55
1 27844U 03031E   12306.07966544  .00000350  00000-0  18099-3 0  4976
2 27844 098.7035 312.4800 0009342 184.0957 176.0122 14.21103570484334
CO-57
1 27848U 03031J   12306.53019129  .00000316  00000-0  16644-3 0  4469
2 27848 098.7136 312.3234 0009284 187.4218 172.6805 14.20845315484331
AO-51
1 28375U 04025K   12305.31695873  .00000400  00000-0  13240-3 0  4014
2 28375 098.1662 264.3956 0084057 349.4180 010.5242 14.41018589438377
CP3
1 31129U 07012N   12306.24319440  .00000753  00000-0  17947-3 0  3029
2 31129 097.8844 305.9902 0101850 057.0951 303.9999 14.53290665293881
CO-65
1 32785U 08021C   12305.86258397  .00001398  00000-0  17681-3 0  4560
2 32785 097.7830 003.5809 0013777 340.2324 019.8307 14.83334163244025
PRISM
1 33493U 09002B   12306.78935961  .00004142  00000-0  49470-3 0  2163
2 33493 098.1891 090.8612 0018114 208.3975 151.6237 14.84687356204165
SOHLA-1
1 33496U 09002E   12306.25915761  .00000344  00000-0  65527-4 0  8746
2 33496 098.1169 057.1888 0006391 334.9034 025.1863 14.70097357202386
SO-67
1 35870U 09049F   12306.82858006  .00004861  00000-0  19737-3 0  4729
2 35870 097.2184 337.7230 0003572 061.9241 352.2818 15.25029521173586
TISAT-1
1 36799U 10035E   12306.78945474  .00002452  00000-0  31174-3 0  4901
2 36799 098.0537 024.0925 0016045 086.7963 273.5039 14.82478822124872
STUDSAT
1 36801U 10035G   12306.80413512  .00006821  00000-0  78939-3 0  5096
2 36801 098.0646 025.5245 0012736 070.7896 289.4667 14.85794267124947
FO-69
1 37227U 0        12306.51363732  .00000645  00000-0  98638-4 0 03260
2 37227 071.9729 008.8938 0015176 062.7785 297.4922 14.77248880056374
FO-70
1 37380U 0        12306.47471935  .00000542  00000-0  84535-4 0 03302
2 37380 071.9756 009.7125 0015791 059.4361 300.8328 14.76995122056251
ALMASAT-1
1 38078U 12006B   12306.65996326  .00013853  00000-0  38413-3 0  7005
2 38078 069.4734 004.7544 0734096 075.9029 292.2493 14.14575265 36950
XATCOBEO
1 38082U 12006F   12306.58444285  .00035901  00000-0  85050-3 0  6628
2 38082 069.4837 358.0988 0680417 072.2381 295.1736 14.29069706 37120
NOAA-10
1 16969U 86073A   12306.53453691  .00000165  00000-0  84518-4 0  1199
2 16969 098.5707 333.0695 0011888 188.7456 171.3525 14.27590566359469
NOAA-11
1 19531U 88089A   12306.46763176 -.00000178  00000-0 -69713-4 0  1130
2 19531 098.7274 028.6979 0010772 188.4037 171.6941 14.14987198243928
NOAA-12
1 21263U 91032A   12306.54936028  .00000093  00000-0  58195-4 0  5943
2 21263 098.7184 327.5156 0014066 158.5933 201.5838 14.25527356116121
MET-3/5
1 21655U 91056A   12305.81520666  .00000286  00000-0  71150-3 0  5400
2 21655 082.5582 055.6537 0012682 345.2459 014.8291 13.17038524 19877
MET-2/21
1 22782U 93055A   12306.90948372  .00000068  00000-0  47784-4 0  5698
2 22782 082.5444 283.2334 0023845 124.1885 236.1560 13.83691212968211
OKEAN-4
1 23317U 94066A   12306.38854154  .00001154  00000-0  13525-3 0   420
2 23317 082.5384 262.9042 0019168 259.0484 100.8576 14.84065330975158
NOAA-14
1 23455U 94089A   12306.47621622  .00000084  00000-0  67422-4 0   764
2 23455 098.8220 028.2014 0008776 289.0493 070.9728 14.13879096920192
NOAA-15
1 25338U 98030A   12306.38711696  .00000040  00000-0  35850-4 0  4628
2 25338 098.7032 292.1015 0011582 071.6412 288.6036 14.25139185752398
RESURS
1 25394U 98043A   12305.89812593  .00000100  00000-0  60867-4 0  2213
2 25394 098.3340 287.0367 0001065 155.2154 204.9078 14.24305735743862
FENGYUN1
1 25730U 99025A   12306.90764478  .00000890  00000-0  53029-3 0  7301
2 25730 098.8555 263.5841 0020982 330.8355 029.1631 14.09815837694014
OKEAN-0
1 25860U 99039A   12305.95231869  .00000819  00000-0  13108-3 0  7751
2 25860 097.9547 265.9472 0001423 104.6668 255.4692 14.74370401714725
NOAA-16
1 26536U 00055A   12306.29027342 -.00000075  00000-0 -15778-4 0  9539
2 26536 099.0778 350.4216 0011190 060.0993 300.1290 14.12799008624394
NOAA-17
1 27453U 02032A   12306.27463480  .00000040  00000-0  34858-4 0  8933
2 27453 098.3260 326.3250 0012641 112.7828 247.4687 14.24501843538270
NOAA-18
1 28654U 05018A   12306.35304188  .00000063  00000-0  59681-4 0  3742
2 28654 099.0660 265.7093 0014787 126.9642 233.2893 14.11723869383912
NOAA-19
1 33591U 09005A   12306.39176761  .00000564  00000-0  33536-3 0  5621
2 33591 098.8768 244.5545 0014219 356.8489 003.2609 14.11411999192369
HUBBLE
1 20580U 90037B   12306.20386483  .00001981  00000-0  13146-3 0   998
2 20580 028.4708 326.6237 0003321 086.5276 273.5640 15.02980314 35354
ISS
1 25544U 98067A   12306.94219655  .00043520  00000-0  73218-3 0  5683
2 25544 051.6464 157.1172 0016378 235.7342 265.5394 15.51143599799410
CO-58
1 28895U 05043F   12306.08371842  .00000659  00000-0  14358-3 0  3166
2 28895 097.8929 166.1994 0018732 080.3535 279.9785 14.60820784373649
FALCON
1 30776U 07006E   12306.89518225  .00004763  00000-0  29991-3 0  4738
2 30776 035.4368 155.0862 0001536 230.6535 129.4048 15.08709937311057
MAST
1 31126U 07012K   12306.42134475  .00000838  00000-0  19606-3 0  5951
2 31126 097.8746 309.5113 0094576 043.2557 317.6040 14.54317227294210
CAPE1
1 31130U 07012P   12306.01936989  .00000615  00000-0  14904-3 0  6063
2 31130 097.8850 305.4571 0102006 058.6537 302.4558 14.53142356293640
COMPASS
1 32787U 08021E   12306.12391204  .00002061  00000-0  25004-3 0  4529
2 32787 097.7848 004.3524 0014725 336.3508 023.7042 14.84574317244122
AAUSAT2
1 32788U 08021F   12305.85976127  .00002366  00000-0  28362-3 0  4429
2 32788 097.7847 004.5579 0013379 338.3106 021.7501 14.84945488244112
DO-64
1 32789U 08021G   12306.15780300  .00004037  00000-0  45778-3 0  4607
2 32789 097.7985 007.4348 0013928 331.7117 028.3270 14.86846147244223
CO-66
1 32791U 08021J   12306.17153016  .00001182  00000-0  14852-3 0  4416
2 32791 097.7837 004.0211 0014606 337.0237 023.0310 14.83885144244055
RS-30
1 32953U 08025A   12306.84388988  .00000010  00000-0  00000 0 0  2853
2 32953 082.5048 209.5345 0019895 010.6879 349.4617 12.43029159201667
PHARMSAT
1 35002U 09028B   12226.86484473  .07728342  73476-5  57159-3 0   789
2 35002 040.4341 050.6671 0012079 300.9773 059.0492 16.39309245183554
METEOR-M
1 35865U 09049A   12306.72218611  .00000011  00000-0  24402-4 0  9234
2 35865 098.6379 358.3462 0003078 029.0306 331.1032 14.21873213162149
RS-38
1 35869U 09049E   12306.72246881  .00000071  00000-0  51454-4 0  9040
2 35869 098.6329 358.3176 0005234 022.8815 337.2592 14.22096228162166
JUGNU
1 37839U 11058B   12305.90703678  .00000620  00000-0  19019-3 0  2596
2 37839 019.9581 249.9545 0018691 288.8986 070.9385 14.12098496 54596
SRMSAT
1 37841U 11058D   12305.22797954  .00000264  00000-0  00000 0 0  2617
2 37841 019.9684 261.6117 0012413 243.9209 115.9939 14.10175191 54417
RAX-2
1 37853U 11061D   12306.77598378  .00003648  00000-0  29300-3 0  3296
2 37853 101.7105 049.6732 0241290 317.8178 040.4699 14.81228841 54759
AUBIESAT
1 37854U 11061E   12306.28561631  .00003842  00000-0  30147-3 0  3281
2 37854 101.7064 049.3910 0242993 318.6800 039.6225 14.81719583 54686
HRBE
1 37855U 11061F   12306.24766839  .00003420  00000-0  26990-3 0  3244
2 37855 101.7078 049.2424 0244228 319.0672 039.2424 14.81507655 54677
RS-39
1 38051U 11062C   12306.90246223  .00011726  00000-0  44758-3 0  8501
2 38051 051.6383 222.4610 0013791 162.8796 314.2932 15.26996080 42996
/EX




More information about the Keps mailing list